Wind_Speed
51 45 44 54 49 47 45 42 40 42 46 38 35 29 37 42 47 50 48 51 50 46 44 42 41 39 42 42 40 44 54 60 59 58 57 58 60 59 58 58 60 64 63 64
51 48 53 53 54 53 51 49 44 43 47 42 38 29 32 40 45 52 54 50 51 51 48 46 42 40 40 43 46 45 43 48 56 61 62 62 60 60 63 63 63 61 61 62
51 50 59 58 57 63 60 60 54 44 47 42 38 27 35 44 47 48 50 52 54 51 52 53 51 46 43 44 47 49 47 45 43 49 51 55 58 60 61 60 58 57 58 59
55 63 65 60 54 66 55 66 64 62 56 48 49 30 38 44 48 49 48 46 52 54 55 55 58 57 54 54 51 52 51 51 50 50 50 51 53 53 55 55 55 56 58 59
69 69 67 64 67 73 54 66 71 67 69 67 52 55 47 44 48 50 54 57 58 62 64 61 57 58 62 61 59 57 58 57 58 58 57 58 60 60 59 58 58 58 60 62
71 75 67 66 72 73 76 80 86 85 77 64 63 75 37 55 53 58 56 55 60 57 61 70 71 68 66 66 65 66 67 67 67 65 63 63 64 65 65 63 63 65 67 67
77 83 82 84 83 87 86 87 92 96 94 91 83 75 51 54 60 61 61 65 66 66 71 67 72 78 76 72 70 67 67 72 72 72 72 68 68 67 68 67 69 69 69 69
86 82 89 91 91 92 93 96 102 106 102 100 97 89 67 75 71 71 71 74 80 77 80 79 67 73 81 77 68 70 69 65 74 76 76 76 75 74 72 72 73 74 75 75
102 98 95 99 101 100 104 108 107 115 117 114 104 104 97 86 88 83 81 85 88 95 98 95 91 86 84 86 84 80 83 82 86 81 76 82 80 77 76 78 80 79 81 84
116 118 103 105 108 106 116 116 117 120 123 123 121 116 109 97 93 97 89 91 94 98 99 100 104 98 95 92 95 96 95 96 93 93 88 81 85 82 83 84 82 84 89 92
129 125 118 119 115 117 123 123 122 128 131 133 136 133 117 106 100 100 106 107 108 114 110 108 109 111 107 109 109 102 104 100 94 101 104 100 93 90 93 91 93 97 98 100
132 141 141 135 127 128 131 125 121 132 137 142 144 141 127 121 114 109 106 116 123 112 118 120 112 111 112 108 111 108 102 101 100 100 103 107 104 99 101 102 102 101 106 104
142 144 148 150 142 135 142 134 134 137 141 142 143 139 130 120 122 122 122 123 129 129 124 119 116 106 105 109 112 104 105 108 113 103 106 104 107 106 109 109 109 110 108 111
145 150 147 149 148 148 142 142 138 140 142 139 140 138 132 125 126 119 128 133 131 129 113 108 113 97 92 93 95 96 102 109 113 106 104 103 109 111 112 113 116 117 117 114
145 148 148 149 151 150 156 146 142 138 133 138 137 139 135 135 128 125 109 101 101 109 109 112 105 106 106 96 97 92 94 97 104 105 107 111 111 111 115 115 117 118 118 117
123 125 126 132 136 141 142 137 129 134 136 136 135 125 122 110 106 107 102 102 101 103 111 115 112 111 110 109 110 103 100 104 102 106 110 108 109 110 109 112 116 117 112 116
111 112 112 112 108 116 104 98 116 120 116 112 113 111 114 115 105 101 99 93 92 90 94 101 108 116 116 118 118 117 110 109 111 109 107 104 104 97 98 99 101 108 116 111
112 117 117 114 114 117 100 103 109 116 118 118 120 119 116 117 116 114 109 105 104 103 93 92 98 107 110 109 117 119 121 117 113 113 110 108 110 106 104 103 105 106 111 113
124 125 126 124 120 119 106 109 111 112 117 118 115 112 111 108 104 105 105 100 95 98 97 94 95 99 104 110 110 108 115 123 122 121 121 123 120 120 122 118 117 122 126 129
125 125 127 122 122 120 112 113 115 117 118 116 115 112 111 110 110 105 113 106 101 102 99 98 96 95 95 99 102 102 109 116 115 112 117 127 135 136 131 130 132 131 129 125
115 119 122 124 127 120 113 113 114 120 114 115 114 114 112 108 108 103 109 112 108 105 106 103 101 103 96 96 96 100 103 109 111 112 109 108 110 114 117 118 120 121 121 118
108 111 114 118 121 118 119 118 117 116 109 109 113 111 107 105 105 104 101 101 103 107 107 107 104 102 98 97 99 97 98 102 103 109 107 108 107 107 108 112 114 114 113 112
107 110 110 112 109 110 114 116 113 115 110 107 105 103 104 102 101 100 98 99 100 102 104 107 102 98 97 97 100 100 101 101 99 103 103 104 102 104 107 108 108 108 106 107
102 106 105 106 102 104 104 106 108 108 104 103 103 102 102 99 98 97 97 95 96 98 99 102 101 97 93 96 97 101 102 103 100 100 104 103 100 102 103 105 108 107 106 105
92 101 107 101 98 109 100 102 102 102 102 100 99 99 99 99 97 97 94 95 96 96 96 96 96 96 94 97 95 99 102 103 104 97 99 98 99 98 101 102 105 106 107 107
95 98 104 100 96 103 93 97 99 96 94 91 91 92 92 90 87 91 89 93 95 94 93 91 91 90 89 91 91 96 103 100 101 98 96 95 96 96 99 99 100 101 103 103
Wind_Direction
286 286 281 276 286 285 290 291 288 277 276 288 291 286 279 278 279 281 279 283 287 288 285 278 275 275 270 270 268 264 258 258 259 259 260 262 264 266 264 264 265 264 266 267
289 290 280 285 284 284 285 283 284 278 278 282 278 283 279 279 277 278 285 285 287 284 283 282 277 274 272 271 270 269 264 260 260 261 261 261 262 264 266 268 269 269 269 269
291 297 286 280 280 281 284 283 276 276 276 282 278 279 278 280 277 280 280 286 286 284 285 285 284 278 273 271 271 272 269 268 263 264 265 266 265 265 266 268 270 270 270 270
297 296 289 279 278 278 285 280 281 278 278 277 281 274 280 277 277 279 283 280 282 287 287 283 281 276 272 271 266 267 270 267 267 266 266 267 267 268 269 269 270 270 270 271
285 289 287 289 289 283 282 282 284 285 287 279 277 278 275 271 276 279 278 279 279 284 284 284 281 279 275 271 271 266 266 267 269 269 267 268 269 269 270 270 271 271 272 273
282 292 294 281 283 289 282 282 283 285 287 286 280 273 274 280 273 271 273 277 285 285 288 285 279 277 277 275 267 264 263 263 265 265 264 266 267 268 268 267 268 270 271 272
285 285 291 293 285 286 291 283 288 295 291 289 290 286 280 276 272 278 280 272 274 279 280 280 282 280 276 272 271 266 262 262 263 266 267 268 267 267 268 268 269 269 270 272
287 283 288 286 283 281 287 285 292 287 292 294 290 295 295 289 285 277 283 285 287 280 275 275 273 276 274 272 270 271 268 267 262 262 267 269 268 268 267 266 268 269 268 270
282 286 285 286 285 279 283 288 285 289 293 292 288 288 290 288 284 279 276 280 285 286 279 280 274 278 269 270 268 267 271 276 272 268 271 268 267 266 269 271 270 269 271 272
282 282 281 281 282 282 284 280 284 285 286 286 287 284 284 282 279 279 282 275 276 277 277 277 275 273 274 265 262 264 265 267 272 270 271 266 269 266 270 270 269 269 270 273
285 280 279 282 286 282 283 284 286 282 282 284 287 285 285 288 281 275 275 277 277 280 273 270 272 274 269 270 267 267 269 267 268 270 270 269 269 263 266 267 269 272 269 272
284 284 284 287 286 285 285 283 279 279 283 282 285 288 291 290 283 282 280 274 273 277 279 278 270 266 267 268 266 267 270 267 268 267 264 263 267 263 262 267 269 272 272 274
285 283 285 285 284 285 284 282 283 281 282 282 285 287 287 282 282 287 287 281 279 276 276 270 265 273 270 273 272 269 265 263 266 268 263 263 265 267 266 265 268 272 272 274
278 281 281 281 282 282 280 280 279 279 280 283 281 284 282 280 280 272 274 278 280 280 277 271 260 271 272 273 270 266 260 260 262 263 259 260 261 262 264 265 264 267 268 270
274 275 274 275 276 275 278 278 278 278 279 277 280 280 280 276 275 278 274 271 266 269 273 273 268 271 273 272 272 271 262 258 256 258 260 259 258 260 264 266 266 264 266 268
276 274 272 273 273 272 272 277 282 280 279 281 280 279 278 277 273 271 268 267 266 263 264 269 268 270 272 273 271 267 265 265 262 261 264 263 262 263 262 263 263 262 264 266
277 277 273 277 276 272 276 280 274 275 275 276 275 275 277 278 276 275 271 271 268 264 264 263 262 264 266 268 268 269 267 265 266 266 269 268 268 262 264 264 263 264 262 269
279 277 276 277 274 276 280 276 276 277 278 277 277 277 276 276 277 276 273 273 271 270 265 263 262 261 261 262 261 264 265 268 268 269 269 272 275 272 272 270 273 275 277 278
278 278 279 280 280 280 280 279 277 277 277 277 277 278 277 277 277 276 276 275 272 271 270 265 261 259 257 259 260 258 260 261 263 266 269 270 270 271 273 274 274 274 276 278
276 277 278 280 279 280 280 279 279 278 277 278 276 275 276 277 277 277 278 275 275 275 272 271 270 265 260 257 257 260 259 258 260 262 265 265 264 266 268 267 269 272 273 274
275 276 277 279 278 278 280 277 276 275 276 276 276 276 276 274 273 272 273 277 277 275 274 272 269 267 264 262 259 257 256 256 259 260 260 261 262 263 264 265 267 269 270 271
275 275 276 277 279 282 281 280 278 275 275 275 275 277 277 276 275 275 273 272 272 272 272 270 268 268 266 264 261 258 257 258 258 260 260 261 262 262 262 263 264 264 266 268
277 277 276 276 276 277 276 277 277 278 279 278 278 279 278 277 277 276 274 273 272 271 269 269 268 266 265 264 263 262 260 257 257 259 259 259 259 260 262 262 262 262 263 265
279 279 279 278 277 277 274 275 277 279 280 279 279 278 279 279 278 276 275 274 272 270 270 270 270 268 265 263 261 261 262 261 258 256 257 256 255 255 256 258 261 263 264 265
280 277 276 279 278 275 277 278 278 277 277 277 277 277 276 276 277 277 277 275 273 271 270 269 269 267 266 265 263 263 263 263 262 259 258 258 256 257 257 256 258 259 261 262
277 278 278 277 276 276 279 277 277 280 280 279 279 278 277 274 273 272 271 270 270 270 270 269 270 269 269 267 265 263 263 261 263 263 262 261 261 260 260 258 256 258 260 261
Height
10740 10744 10741 10728 10733 10734 10735 10735 10736 10732 10726 10737 10737 10740 10735 10728 10722 10716 10715 10716 10715 10717 10716 10715 10715 10716 10713 10712 10711 10710 10710 10707 10708 10708 10708 10709 10708 10708 10707 10707 10706 10705 10705 10705
10729 10736 10722 10722 10719 10719 10720 10720 10722 10724 10718 10722 10728 10734 10729 10720 10716 10711 10708 10709 10709 10705 10705 10705 10703 10703 10703 10701 10698 10699 10699 10696 10695 10693 10694 10694 10695 10695 10692 10692 10691 10691 10691 10689
10720 10721 10712 10708 10707 10700 10705 10699 10703 10710 10705 10709 10715 10727 10721 10711 10706 10706 10706 10700 10694 10696 10694 10694 10694 10692 10691 10690 10689 10686 10685 10685 10685 10681 10680 10680 10680 10680 10680 10678 10677 10676 10675 10674
10711 10698 10697 10697 10696 10676 10697 10673 10686 10690 10692 10701 10700 10717 10714 10703 10698 10695 10694 10692 10684 10682 10681 10682 10679 10679 10678 10678 10678 10677 10673 10671 10671 10670 10669 10668 10666 10666 10664 10665 10665 10663 10661 10661
10697 10689 10682 10681 10675 10668 10677 10666 10664 10668 10672 10683 10690 10685 10704 10699 10691 10688 10681 10676 10677 10673 10670 10666 10665 10664 10664 10663 10662 10662 10660 10658 10656 10654 10653 10652 10652 10651 10650 10651 10650 10649 10647 10646
10676 10669 10670 10662 10658 10651 10647 10647 10644 10646 10649 10664 10667 10658 10705 10683 10680 10677 10671 10666 10662 10662 10654 10648 10648 10647 10645 10645 10646 10644 10643 10643 10640 10639 10638 10637 10637 10636 10635 10633 10632 10630 10630 10628
10652 10653 10648 10638 10634 10631 10624 10624 10620 10621 10621 10634 10640 10635 10681 10666 10658 10658 10656 10655 10654 10648 10641 10636 10629 10624 10622 10623 10626 10624 10624 10624 10623 10621 10619 10621 10621 10620 10619 10618 10616 10614 10612 10610
10624 10635 10626 10623 10612 10612 10609 10599 10596 10577 10594 10605 10609 10619 10654 10642 10642 10632 10631 10633 10627 10627 10626 10619 10613 10610 10604 10603 10601 10602 10602 10602 10604 10604 10604 10604 10603 10602 10601 10600 10598 10596 10594 10591
10589 10609 10604 10598 10595 10591 10590 10584 10571 10555 10556 10553 10589 10596 10610 10624 10617 10609 10609 10606 10604 10598 10590 10592 10592 10587 10587 10584 10580 10580 10578 10578 10580 10583 10587 10585 10584 10582 10581 10580 10578 10576 10573 10570
10559 10559 10587 10579 10574 10582 10560 10556 10553 10541 10522 10521 10526 10550 10573 10598 10593 10582 10584 10580 10571 10564 10564 10560 10554 10562 10559 10558 10556 10555 10554 10557 10559 10562 10563 10563 10563 10562 10559 10559 10556 10554 10551 10549
10529 10524 10553 10546 10556 10546 10537 10529 10527 10509 10503 10489 10485 10488 10535 10556 10559 10555 10550 10545 10538 10531 10522 10524 10527 10530 10531 10528 10522 10522 10527 10539 10547 10539 10538 10542 10541 10540 10532 10531 10530 10526 10522 10520
10501 10484 10481 10512 10515 10509 10505 10504 10495 10471 10475 10462 10450 10448 10495 10501 10498 10504 10515 10507 10491 10485 10478 10484 10491 10484 10488 10492 10494 10498 10508 10516 10519 10513 10513 10512 10514 10513 10510 10504 10500 10497 10494 10490
10469 10453 10447 10453 10474 10478 10459 10465 10459 10448 10435 10430 10425 10428 10451 10458 10460 10457 10447 10435 10434 10444 10447 10442 10444 10468 10471 10476 10476 10481 10482 10483 10481 10481 10483 10485 10485 10484 10479 10476 10472 10468 10466 10461
10424 10425 10424 10420 10416 10432 10426 10426 10430 10412 10394 10403 10386 10390 10405 10418 10419 10429 10403 10399 10403 10410 10413 10412 10416 10419 10429 10435 10436 10439 10445 10445 10446 10442 10445 10450 10450 10446 10445 10441 10441 10437 10432 10431
10388 10388 10386 10390 10392 10387 10382 10384 10388 10383 10375 10354 10363 10358 10361 10358 10363 10381 10385 10382 10381 10378 10375 10374 10382 10383 10387 10393 10395 10394 10402 10403 10405 10406 10410 10417 10413 10416 10414 10410 10406 10405 10403 10401
10347 10345 10344 10352 10365 10342 10338 10345 10359 10342 10334 10324 10322 10320 10304 10322 10326 10334 10341 10342 10351 10350 10347 10348 10350 10351 10355 10356 10358 10360 10364 10363 10366 10370 10376 10376 10378 10382 10380 10377 10374 10370 10370 10371
10315 10308 10303 10310 10321 10299 10309 10344 10309 10302 10297 10300 10292 10286 10285 10282 10291 10292 10298 10306 10314 10324 10322 10318 10318 10318 10320 10322 10325 10325 10328 10330 10329 10333 10337 10338 10342 10347 10347 10341 10343 10341 10340 10336
10282 10274 10265 10271 10280 10265 10301 10291 10280 10272 10267 10262 10254 10252 10254 10256 10252 10252 10259 10265 10268 10276 10288 10290 10290 10288 10287 10286 10290 10295 10291 10291 10294 10295 10299 10300 10305 10310 10311 10309 10314 10310 10307 10307
10240 10236 10232 10231 10238 10232 10257 10255 10250 10243 10226 10220 10221 10221 10219 10222 10227 10223 10220 10224 10230 10230 10237 10248 10253 10253 10258 10253 10255 10262 10260 10259 10262 10264 10264 10270 10273 10276 10279 10277 10277 10280 10279 10276
10219 10207 10193 10196 10191 10196 10219 10215 10211 10197 10190 10189 10188 10190 10191 10193 10192 10203 10176 10184 10194 10194 10197 10201 10206 10214 10219 10220 10223 10228 10227 10224 10227 10232 10235 10238 10241 10243 10246 10247 10244 10245 10246 10247
10192 10175 10164 10157 10149 10165 10178 10176 10171 10153 10161 10154 10153 10152 10153 10159 10159 10173 10162 10150 10151 10158 10159 10161 10167 10169 10175 10180 10186 10189 10192 10188 10192 10196 10203 10205 10206 10208 10211 10211 10212 10211 10211 10212
10160 10152 10145 10133 10122 10128 10122 10121 10117 10117 10126 10125 10114 10115 10120 10123 10124 10121 10129 10126 10124 10118 10118 10119 10128 10133 10135 10140 10142 10150 10154 10154 10158 10158 10167 10171 10175 10176 10178 10178 10178 10180 10180 10181
10121 10113 10113 10106 10108 10102 10089 10079 10083 10072 10084 10087 10086 10088 10081 10083 10082 10082 10086 10088 10087 10084 10084 10080 10089 10096 10098 10097 10099 10108 10110 10114 10121 10122 10128 10132 10138 10142 10142 10143 10144 10148 10152 10152
10090 10077 10073 10067 10074 10065 10063 10056 10050 10048 10053 10053 10052 10051 10047 10046 10047 10047 10046 10049 10048 10047 10046 10043 10045 10052 10059 10053 10061 10064 10067 10070 10080 10087 10089 10095 10103 10109 10115 10116 10116 10117 10119 10120
10072 10046 10029 10040 10045 10014 10035 10028 10028 10024 10021 10024 10021 10018 10016 10013 10014 10009 10015 10012 10010 10011 10010 10010 10012 10016 10024 10018 10026 10024 10025 10028 10034 10045 10053 10060 10068 10075 10080 10086 10085 10087 10087 10087
10027 10019 9998 10004 10013 9990 10011 9999 9991 9993 9994 9994 9991 9985 9982 9983 9987 9977 9982 9976 9971 9975 9978 9981 9983 9984 9988 9989 9994 9992 9986 9992 9999 10009 10017 10023 10029 10038 10044 10048 10053 10054 10055 10056